Regional Weather Roundup
Issued by NWS Charleston, WV

Home | Current Version | Previous Version | Graphics & Text | Print | Product List | Glossary On
Versions: 1 2 3 4 5 6 7 8 9 10 11 12 13 14 15 16 17 18 19 20 21 22 23 24 25 26 27 28 29 30 31 32 33 34 35 36 37 38 39 40 41 42 43 44 45 46 47 48 49 50
000
ASUS41 KRLX 061310
RWRRLX
West Virginia Regional Weather Roundup
National Weather Service Charleston WV
800 AM EST FRI MAR 06 2015

Note: "fair" indicates few or no clouds below 12,000 feet with no
significant weather and/or obstructions to visibility.

WVZ003-061400-
Northern Panhandle of West Virginia

CITY           SKY/WX    TMP DP  RH WIND       PRES   REMARKS
WHEELING         N/A      1  -2  87 CALM      30.51R
$$

WVZ009-061400-
Northwest West Virginia

CITY           SKY/WX    TMP DP  RH WIND       PRES   REMARKS
PARKERSBURG    FOG        0  -2  91 CALM      30.57F VSB 1
$$

WVZ006-061400-
Western West Virginia

CITY           SKY/WX    TMP DP  RH WIND       PRES   REMARKS
HUNTINGTON     PTSUNNY    2   1  96 CALM      30.55R FOG
$$

WVZ015-061400-
West Central West Virginia

CITY           SKY/WX    TMP DP  RH WIND       PRES   REMARKS
CHARLESTON     PTSUNNY    6   5  95 CALM      30.53S
$$

WVZ022-031-061400-
North Central West Virginia

CITY           SKY/WX    TMP DP  RH WIND       PRES   REMARKS
CLARKSBURG     PTSUNNY   -4  -5  95 CALM      30.52R
MORGANTOWN     PTSUNNY    1  -3  83 S3        30.53
$$

WVZ025-035-042-045-061400-
Southern West Virginia

CITY           SKY/WX    TMP DP  RH WIND       PRES   REMARKS
BECKLEY        MOSUNNY    7   5  91 CALM      30.38R FOG
LOGAN          NOT AVBL
BLUEFIELD      MOSUNNY   10   5  80 CALM      30.35S
LEWISBURG      MOSUNNY    2  -3  80 CALM      30.41R
$$

WVZ047-061400-
Northern Mountains of West Virginia

CITY           SKY/WX    TMP DP  RH WIND       PRES   REMARKS
ELKINS         PTSUNNY   -5  -9  83 CALM      30.46R
$$

WVZ052-061400-
Eastern Panhandle of West Virginia

CITY           SKY/WX    TMP DP  RH WIND       PRES   REMARKS
MARTINSBURG    MOSUNNY    7  -1  70 W3        30.58R
PETERSBURG       N/A    N/A N/A N/A MISG        N/A
$$



USA.gov is the U.S. government's official web portal to all federal, state and local government web resources and services.